OBJECT F

Satellite information

Favourite Embed

Satellite Type and Status

UNKNOWNDECAYED

Key statistics

Satellite OBJECT F at a glance.

Uptime

1183

Days in orbit

Revolutions

≈ 16.5

Per day

Orbit

SSO

Sun Synchronous Orbit

Inclination

97.4

Latest

Satellite identification and parameters

Extended collection of information and parameters for OBJECT F.

Object identification

Identified? True

Debris? False

Object name: OBJECT F

International designator: 2021-091F

Object number (NORAD): 49320

Object ID (CCSDS): 49320

Country: PEOPLES REPUBLIC OF CHINA (PRC)

Current information (Y/N): Y

RCS size: MEDIUM

Orbital parameters

Decay date: Jan. 9, 2025

Period: 87.435 minutes

Inclination: 97.377 deg

SMA: 6525.529 km

Apoapsis: 152.221 km

Periapsis: 142.567 km

RAAN: 222.0857 deg

Eccentricy: 0.0007397

Argument of periapsis: 253.2293 deg

Mean anomaly: 106.8198 deg

Mean motion: 16.46945201 rev/day

Mean motion (dot): 0.16356313 rev/day2

B* drag term: 0.00031923 1/REarth

Two-line elements (TLE)

Creation date: April 9, 2025, 5:06 p.m.

Reference frame: TEME

Reference center: EARTH

Epoch: Jan. 9, 2025, 10:58 p.m. UTC

TLE line 0: 0 OBJECT F

TLE line 1: 1 49320U 21091F 25009.95727642 .16356313 26291-5 31923-3 0 9993

TLE line 2: 2 49320 97.3770 222.0857 0007397 253.2293 106.8198 16.46945201181103

Live tracking on map

Satellite OBJECT F has decayed and is no longer in orbit. No tracking available.

In-orbit conjunctions

Satellite OBJECT F has decayed and is no longer in orbit. No conjunctions available.

Associated space launch

Xihe, also known as the Chinese Hα Solar Explorer (CHASE), is designed to test a newly developed satellite platform and conduct solar observations. The scientific payload of the satellite is an Hα imaging spectrograph (HIS), which can, for the first time, acquire full-disk spectroscopic solar observations in the Hα waveband. It will complement the observations by on-orbit solar spacecraft (such as SDO, IRIS, STEREO and PSP), as well as future solar missions of the Solar Orbiter and the Chinese Advanced Space-based Solar Observatory (ASO-S). Mission is named Xihe after a solar deity from Chinese mythology.

OBJECT F was lifted into orbit during the mission ‘Long March 2D | Xihe (CHASE)’, on board a Long March 2D space rocket.

The launch took place on Oct. 14, 2021, 10:51 a.m. from Launch Complex 9.

For more information about the launch, click the button.

Launch to space Long March 2D | Xihe (CHASE)
Long March 2D | Xihe (CHASE)

Agency: N/A

Status: Launch Successful

Launch date: Oct. 14, 2021, 10:51 a.m. UTC

Rocket: Long March 2D

Launch pad: Launch Complex 9

Location: Taiyuan Satellite Launch Center, People's Republic of China

...

Latest news about this satellite

News about space launch
China launches hydrogen-alpha solar telescope aboard Long March 2D

China has launched a small experimental solar observatory as part of a multi-satellite launch aboard a Long March 2D rocket Thursday. The launch took place from the Taiyuan Satellite Launch Center at 10:51 UTC (18:51 Bejing time).

News about space launch
China launches orbiting solar observatory

China successfully launched a half-ton scientific research satellite Oct. 14 to study the violent and sudden physical processes behind solar flares, joining 10 other small payloads on a Long March 2D rocket that also tested grid fins to help guide the exp...

News about space launch
China launches first solar observatory, tests grid fins

China carried out its 37th orbital launch of the year Thursday, successfully sending the Chinese H-alpha Solar Explorer and 10 other satellites into orbit.


Newsletter sign-up

Weekly statistics, charts and insights to help you stay on top of the space industry.